Gene Autry, OK

12:18 AM CDT on September 29, 2016 (GMT -0500)
Ardmore Municipal

Weather History for KADM - June, 2012

Change the Weather History Date:

Monday, June 4, 2012

  Actual Average Record
Temperature  
Mean Temperature 78 °F -  
Max Temperature 86 °F 83 °F 95 °F (2006)
Min Temperature 71 °F 65 °F 59 °F (2007)
Cooling Degree Days 14    
Growing Degree Days 28 (Base 50)    
Moisture  
Dew Point 69 °F    
Average Humidity 74    
Maximum Humidity 94    
Minimum Humidity 58    
Precipitation  
Precipitation 0.00 in - - ()
Sea Level Pressure  
Sea Level Pressure 29.82 in    
Wind  
Wind Speed 5 mph (South)    
Max Wind Speed 13 mph    
Max Gust Speed 17 mph    
Visibility 10 miles    
Events Thunderstorm    
Averages and records for this station are not official NWS values.
T = Trace of Precipitation, MM = Missing Value Source: NWS Daily Summary

Daily Weather History Graph

Daily Weather History Graph

Search for Another Location

Airport or City:

Trip Planner

Search our weather history database for the weather conditions in past years. The results will help you decide how hot, cold, wet, or windy it might be!

Date:

Astronomy

Jun. 04, 2012 Rise Set
Actual Time 6:16 AM CDT 8:36 PM CDT
Civil Twilight 5:47 AM CDT 9:06 PM CDT
Nautical Twilight 5:11 AM CDT 9:41 PM CDT
Astronomical Twilight 4:32 AM CDT 10:20 PM CDT
Moon 9:08 PM CDT (6/4) 6:23 AM CDT (6/4)
Length of Visible Light 15h 18m
Length of Day
14h 20m
Full, 100% of the Moon is Illuminated
Jun 4
Full
Jun 11
Last Quarter
Jun 19
New
Jun 26
First Quarter
Jul 3
Full

Hourly Weather History & Observations

Time (CDT) Temp. Heat Index Dew Point Humidity Pressure Visibility Wind Dir Wind Speed Gust Speed Precip Events Conditions
12:15 AM 77.0 °F - 68.0 °F 74% 29.81 in 10.0 mi SSE 6.9 mph - N/A   Clear
12:35 AM 77.0 °F - 68.0 °F 74% 29.82 in 10.0 mi Calm Calm - N/A   Clear
12:55 AM 75.2 °F - 68.0 °F 78% 29.82 in 10.0 mi SSE 3.5 mph - N/A   Clear
1:15 AM 77.0 °F - 68.0 °F 74% 29.81 in 10.0 mi SSE 4.6 mph - N/A   Clear
1:35 AM 78.8 °F - 68.0 °F 69% 29.80 in 10.0 mi South 6.9 mph - N/A   Clear
1:55 AM 78.8 °F - 68.0 °F 69% 29.78 in 10.0 mi South 8.1 mph - N/A   Clear
2:15 AM 78.8 °F - 68.0 °F 69% 29.77 in 10.0 mi SSW 8.1 mph - N/A   Clear
2:35 AM 78.8 °F - 68.0 °F 69% 29.77 in 10.0 mi SSW 8.1 mph 17.3 mph N/A   Clear
2:55 AM 80.6 °F 83.2 °F 68.0 °F 65% 29.81 in 10.0 mi Calm Calm - N/A   Clear
3:15 AM 78.8 °F - 68.0 °F 69% 29.82 in 10.0 mi SW 3.5 mph - N/A Thunderstorm Clear
3:35 AM 78.8 °F - 68.0 °F 69% 29.81 in 10.0 mi Calm Calm - N/A Thunderstorm Clear
3:55 AM 77.0 °F - 68.0 °F 74% 29.80 in 10.0 mi South 4.6 mph - N/A   Clear
4:15 AM 77.0 °F - 68.0 °F 74% 29.79 in 10.0 mi SSE 6.9 mph - N/A   Clear
4:35 AM 77.0 °F - 68.0 °F 74% 29.79 in 10.0 mi South 6.9 mph - N/A   Clear
5:15 AM 77.0 °F - 68.0 °F 74% 29.79 in 10.0 mi SSW 6.9 mph - N/A   Clear
5:35 AM 77.0 °F - 68.0 °F 74% 29.82 in 10.0 mi West 3.5 mph - N/A   Clear
5:55 AM 77.0 °F - 68.0 °F 74% 29.82 in 10.0 mi South 3.5 mph - N/A   Clear
6:15 AM 77.0 °F - 69.8 °F 78% 29.84 in 10.0 mi SW 3.5 mph - N/A Thunderstorm Thunderstorm
6:35 AM 73.4 °F - 69.8 °F 88% 29.91 in 10.0 mi NE 12.7 mph - N/A Thunderstorm Thunderstorm
7:55 AM 73.4 °F - 71.6 °F 94% 29.93 in 10.0 mi ENE 9.2 mph - N/A   Mostly Cloudy
10:55 AM 75.2 °F - 68.0 °F 78% 29.89 in 10.0 mi SE 6.9 mph - N/A   Clear
3:55 PM 84.2 °F 88.4 °F 69.8 °F 62% 29.84 in 10.0 mi Calm Calm - N/A   Clear
5:55 PM 82.4 °F 86.3 °F 69.8 °F 66% 29.82 in 10.0 mi SE 3.5 mph - N/A   Clear
6:55 PM 86.0 °F 90.4 °F 69.8 °F 58% 29.82 in 10.0 mi South 4.6 mph - N/A   Clear
7:55 PM 82.4 °F 86.3 °F 69.8 °F 66% 29.81 in 10.0 mi Calm Calm - N/A   Clear
8:55 PM 78.8 °F - 69.8 °F 74% 29.82 in 10.0 mi Calm Calm - N/A   Clear
11:35 PM 71.6 °F - 69.8 °F 94% 29.84 in 10.0 mi Calm Calm - N/A   Clear
11:55 PM 71.6 °F - 69.8 °F 94% 29.83 in 10.0 mi Calm Calm - N/A   Clear